User: anonymous   Login
Location: Newark
(47.9297°N, 19.1367°E)
Time: 23:30:22
(UTC+00:00)
Language:

NANOSAT C BR1 - Orbit

View from above orbital plane
View from above orbital plane
View from above satellite
View from above satellite

Ground track
Ground track

The orbit data is extracted from the following two-line orbital elements,

1 40024U 14033Q   21127.54750858  .00000371  00000-0  44026-4 0  9997
2 40024  97.9498  62.5304 0011006 310.1431  49.8822 14.90405608373507
Epoch (UTC): 07 May 2021 13:08:24
Eccentricity: 0.0011006
inclination: 97.9498°
perigee height: 589 km
apogee height: 604 km
right ascension of ascending node: 62.5304°
argument of perigee: 310.1431°
revolutions per day: 14.90405608
mean anomaly at epoch: 49.8822°
orbit number at epoch: 37350

The dashed part of the orbit path shows where the satellite is in the earth's shadow,  

DLR